Location: *
(32.3300°N, 34.8500°E)
Time: 05:27:09
(UTC+00:00)

Meteor 1-31 Rocket - Pass Details

Date: 22 October 2019
Orbit: 520 x 548 km, 97.6° (Epoch: 14 November)

Event Time Altitude Azimuth Distance (km) Brightness Sun altitude
Rises 03:11:41 0° 347° (NNW) 2,650 6.1 -8.6°
Reaches altitude 10° 03:14:41 10° 321° (NW) 1,756 5.0 -8.0°
Maximum altitude 03:16:34 14° 291° (WNW) 1,542 4.5 -7.6°
Drops below altitude 10° 03:18:28 10° 260° (W) 1,751 4.8 -7.2°
Sets 03:21:27 0° 234° (SW) 2,636 5.9 -6.6°
